User: anonymous   Login
Location: Unspecified
(52.4292°N, 19.3359°E)
Time: 12:30:31
(UTC+02:00)
Language:

Explorer 11/Cluster Stage 4 - Orbit

View from above orbital plane
View from above orbital plane
View from above satellite
View from above satellite

Ground track
Ground track

The orbit data is extracted from the following two-line orbital elements,

1 00107U 61013A   24139.92371189  .00004172  00000-0  51744-3 0  9996
2 00107  28.7934 354.1901 0521713 269.9071  84.1741 14.15212919168543
Epoch (UTC): 18 May 2024 22:10:08
Eccentricity: 0.0521713
inclination: 28.7934°
perigee height: 465 km
apogee height: 1218 km
right ascension of ascending node: 354.1901°
argument of perigee: 269.9071°
revolutions per day: 14.15212919
mean anomaly at epoch: 84.1741°
orbit number at epoch: 16854

The dashed part of the orbit path shows where the satellite is in the earth's shadow,  

DLR